Glenwood, MN

1:12 AM CDT on June 23, 2017 (GMT -0500)
Glenwood Municipal

Weather History for KGHW - January, 2013

Change the Weather History Date:

Monday, January 7, 2013

  Actual Average Record
Temperature  
Mean Temperature 27 °F -  
Max Temperature 35 °F 15 °F 44 °F (2003)
Min Temperature 19 °F -4 °F -30 °F (1986)
Degree Days  
Heating Degree Days 38    
Moisture  
Dew Point 20 °F    
Average Humidity 83    
Maximum Humidity 100    
Minimum Humidity 65    
Precipitation  
Precipitation 0.00 in - - ()
Sea Level Pressure  
Sea Level Pressure 29.85 in    
Wind  
Wind Speed 12 mph (SW)    
Max Wind Speed 17 mph    
Max Gust Speed 20 mph    
Visibility 10 miles    
Events      
Averages and records for this station are not official NWS values.
T = Trace of Precipitation, MM = Missing Value Source: NWS Daily Summary

Daily Weather History Graph

Daily Weather History Graph

Search for Another Location

Airport or City:

Trip Planner

Search our weather history database for the weather conditions in past years. The results will help you decide how hot, cold, wet, or windy it might be!

Date:

Astronomy

Jan. 07, 2013 Rise Set
Actual Time 8:01 AM CST 4:54 PM CST
Civil Twilight 7:27 AM CST 5:28 PM CST
Nautical Twilight 6:50 AM CST 6:05 PM CST
Astronomical Twilight 6:14 AM CST 6:41 PM CST
Moon 3:22 AM CST (1/7) 1:08 PM CST (1/7)
Length of Visible Light 10h 00m
Length of Day
8h 53m
Waning Crescent, 22% of the Moon is Illuminated
Jan 7
Waning Crescent
Jan 11
New
Jan 18
First Quarter
Jan 26
Full
Feb 3
Last Quarter

Hourly Weather History & Observations

Time (CST) Temp. Windchill Dew Point Humidity Pressure Visibility Wind Dir Wind Speed Gust Speed Precip Events Conditions
12:33 AM 21.2 °F 7.8 °F 15.8 °F 80% 29.83 in 10.0 mi South 15.0 mph 19.6 mph N/A   Clear
12:54 AM 21.2 °F 7.3 °F 15.8 °F 80% 29.81 in 10.0 mi South 16.1 mph - N/A   Clear
1:13 AM 21.2 °F 6.8 °F 17.6 °F 86% 29.80 in 10.0 mi South 17.3 mph - N/A   Clear
1:34 AM 21.2 °F 7.3 °F 17.6 °F 86% 29.80 in 10.0 mi South 16.1 mph - N/A   Clear
1:53 AM 21.2 °F 10.9 °F 17.6 °F 86% 29.80 in 10.0 mi SSW 9.2 mph - N/A   Clear
2:13 AM 21.2 °F 9.5 °F 17.6 °F 86% 29.80 in 10.0 mi South 11.5 mph - N/A   Clear
2:34 AM 21.2 °F 8.9 °F 17.6 °F 86% 29.79 in 10.0 mi South 12.7 mph - N/A   Clear
2:53 AM 21.2 °F 7.3 °F 17.6 °F 86% 29.79 in 10.0 mi South 16.1 mph - N/A   Clear
3:13 AM 23.0 °F 9.2 °F 17.6 °F 80% 29.79 in 10.0 mi South 17.3 mph - N/A   Clear
3:34 AM 21.2 °F 10.1 °F 17.6 °F 86% 29.79 in 10.0 mi SW 10.4 mph - N/A   Clear
3:53 AM 21.2 °F 8.9 °F 17.6 °F 86% 29.79 in 10.0 mi SSW 12.7 mph - N/A   Clear
4:13 AM 21.2 °F 10.1 °F 17.6 °F 86% 29.79 in 10.0 mi SW 10.4 mph - N/A   Clear
4:53 AM 21.2 °F 10.1 °F 17.6 °F 86% 29.79 in 10.0 mi SSW 10.4 mph - N/A   Clear
5:13 AM 21.2 °F 9.5 °F 17.6 °F 86% 29.80 in 10.0 mi SW 11.5 mph - N/A   Clear
5:34 AM 19.4 °F 9.5 °F 17.6 °F 93% 29.81 in 10.0 mi SSW 8.1 mph - N/A   Clear
5:53 AM 19.4 °F 9.5 °F 17.6 °F 93% 29.81 in 10.0 mi South 8.1 mph - N/A   Clear
6:13 AM 19.4 °F 8.6 °F 17.6 °F 93% 29.81 in 10.0 mi SSW 9.2 mph - N/A   Clear
6:34 AM 21.2 °F 10.1 °F 17.6 °F 86% 29.81 in 10.0 mi SSW 10.4 mph - N/A   Clear
6:53 AM 21.2 °F 10.9 °F 17.6 °F 86% 29.81 in 10.0 mi SW 9.2 mph - N/A   Clear
7:13 AM 21.2 °F 12.6 °F 19.4 °F 93% 29.80 in 10.0 mi SSW 6.9 mph - N/A   Clear
7:34 AM 24.8 °F 14.0 °F 21.2 °F 86% 29.81 in 10.0 mi WSW 11.5 mph - N/A   Clear
7:53 AM 24.8 °F 14.0 °F 21.2 °F 86% 29.82 in 10.0 mi WSW 11.5 mph - N/A   Clear
8:13 AM 24.8 °F 14.0 °F 19.4 °F 80% 29.83 in 10.0 mi WSW 11.5 mph - N/A   Clear
8:33 AM 23.0 °F 11.7 °F 19.4 °F 86% 29.84 in 10.0 mi WSW 11.5 mph - N/A   Clear
8:53 AM 21.2 °F 10.1 °F 17.6 °F 86% 29.83 in 10.0 mi SW 10.4 mph - N/A   Clear
9:13 AM 24.8 °F 15.3 °F 19.4 °F 80% 29.84 in 10.0 mi WSW 9.2 mph - N/A   Clear
9:33 AM 24.8 °F 14.0 °F 19.4 °F 80% 29.85 in 10.0 mi WSW 11.5 mph - N/A   Clear
9:53 AM 28.4 °F 17.0 °F 21.2 °F 74% 29.85 in 10.0 mi WSW 15.0 mph - N/A   Clear
10:14 AM 28.4 °F 17.5 °F 21.2 °F 74% 29.86 in 10.0 mi WSW 13.8 mph - N/A   Clear
10:33 AM 28.4 °F 18.0 °F 21.2 °F 74% 29.87 in 10.0 mi WSW 12.7 mph - N/A   Clear
10:53 AM 30.2 °F 20.2 °F 21.2 °F 69% 29.87 in 10.0 mi WSW 12.7 mph - N/A   Clear
11:33 AM 30.2 °F 20.2 °F 21.2 °F 69% 29.86 in 10.0 mi West 12.7 mph - N/A   Clear
11:53 AM 32.0 °F 24.8 °F 23.0 °F 69% 29.85 in 10.0 mi WSW 8.1 mph - N/A   Clear
12:14 PM 33.8 °F 25.3 °F 23.0 °F 65% 29.85 in 10.0 mi West 11.5 mph - N/A   Clear
1:14 PM 33.8 °F 25.3 °F 24.8 °F 70% 29.84 in 10.0 mi WSW 11.5 mph - N/A   Unknown
1:53 PM 35.6 °F 27.1 °F 24.8 °F 65% 29.84 in 10.0 mi WSW 12.7 mph - N/A   Clear
2:14 PM 33.8 °F 24.8 °F 26.6 °F 75% 29.84 in 10.0 mi SW 12.7 mph - N/A   Clear
2:33 PM 33.8 °F 24.3 °F 24.8 °F 70% 29.85 in 10.0 mi SW 13.8 mph - N/A   Clear
2:53 PM 33.8 °F 23.9 °F 24.8 °F 70% 29.86 in 10.0 mi SW 15.0 mph - N/A   Clear
3:13 PM 33.8 °F 24.3 °F 24.8 °F 70% 29.87 in 10.0 mi WSW 13.8 mph - N/A   Clear
3:33 PM 32.0 °F 22.5 °F 24.8 °F 75% 29.87 in 10.0 mi WSW 12.7 mph - N/A   Clear
3:54 PM 32.0 °F 22.1 °F 24.8 °F 75% 29.87 in 10.0 mi WSW 13.8 mph - N/A   Clear
4:13 PM 30.2 °F 20.2 °F 24.8 °F 80% 29.88 in 10.0 mi WSW 12.7 mph - N/A   Clear
4:53 PM 30.2 °F 21.3 °F 23.0 °F 75% 29.89 in 10.0 mi West 10.4 mph - N/A   Clear
5:13 PM 28.4 °F 19.7 °F 23.0 °F 80% 29.89 in 10.0 mi WSW 9.2 mph - N/A   Clear
5:33 PM 26.6 °F 17.5 °F 21.2 °F 80% 29.90 in 10.0 mi WSW 9.2 mph - N/A   Clear
5:53 PM 24.8 °F 16.9 °F 21.2 °F 86% 29.89 in 10.0 mi WSW 6.9 mph - N/A   Clear
6:13 PM 24.8 °F 15.3 °F 19.4 °F 80% 29.90 in 10.0 mi WSW 9.2 mph - N/A   Clear
6:33 PM 24.8 °F 16.1 °F 21.2 °F 86% 29.90 in 10.0 mi West 8.1 mph - N/A   Clear
6:53 PM 24.8 °F 16.1 °F 21.2 °F 86% 29.90 in 10.0 mi West 8.1 mph - N/A   Clear
7:13 PM 24.8 °F 15.3 °F 21.2 °F 86% 29.90 in 10.0 mi WSW 9.2 mph - N/A   Clear
7:34 PM 24.8 °F 16.9 °F 21.2 °F 86% 29.90 in 10.0 mi WSW 6.9 mph - N/A   Clear
7:53 PM 23.0 °F 18.4 °F 21.2 °F 93% 29.90 in 10.0 mi SW 3.5 mph - N/A   Clear
8:13 PM 24.8 °F 20.5 °F 21.2 °F 86% 29.90 in 10.0 mi WSW 3.5 mph - N/A   Clear
8:34 PM 23.0 °F 17.0 °F 19.4 °F 86% 29.91 in 10.0 mi SW 4.6 mph - N/A   Clear
8:53 PM 24.8 °F 19.1 °F 21.2 °F 86% 29.91 in 10.0 mi WSW 4.6 mph - N/A   Clear
9:13 PM 24.8 °F 19.1 °F 21.2 °F 86% 29.91 in 10.0 mi WSW 4.6 mph - N/A   Clear
9:34 PM 24.8 °F 17.9 °F 21.2 °F 86% 29.92 in 10.0 mi West 5.8 mph - N/A   Clear
9:53 PM 23.0 °F 17.0 °F 21.2 °F 93% 29.92 in 10.0 mi WSW 4.6 mph - N/A   Clear
10:13 PM 19.4 °F 10.4 °F 17.6 °F 93% 29.93 in 10.0 mi SW 6.9 mph - N/A   Clear
10:34 PM 19.4 °F 10.4 °F 17.6 °F 93% 29.92 in 10.0 mi SW 6.9 mph - N/A   Clear
10:53 PM 19.4 °F 11.5 °F 17.6 °F 93% 29.93 in 10.0 mi SW 5.8 mph - N/A   Clear
11:13 PM 21.2 °F 13.6 °F 19.4 °F 93% 29.93 in 10.0 mi WSW 5.8 mph - N/A   Clear
11:33 PM 19.4 °F 11.5 °F 17.6 °F 93% 29.93 in 10.0 mi WSW 5.8 mph - N/A   Clear
11:53 PM 19.4 °F 12.8 °F 19.4 °F 100% 29.92 in 10.0 mi SW 4.6 mph - N/A   Clear